Location: Huppendorf
(49.9333°N, 11.1500°E)
Time: 06:45:42
(UTC+00:00)

STARLINK-49 - Pass Details

Date: 27 February 2020
Orbit: 529 x 530 km, 53.0° (Epoch: 10 April)

Event Time Altitude Azimuth Distance (km) Brightness Sun altitude
Rises 19:03:44 0° 285° (WNW) 2,670 8.7 -21.6°
Reaches altitude 10° 19:05:59 10° 289° (WNW) 1,779 7.4 -22.0°
Enters shadow 19:09:58 61° 10° (N) 608 3.7 -22.6°
